GPS BIIF-11 (41019 NORAD) Tracking and Keplerian Element Data

This shows tracking and keplerian element data for the satellite.

Feedback or suggestion? Click here.




ElementValue
Catalog41019
NameGPS BIIF-11
Epoch Orbit1990
Epoch Day202.00467355
Epoch Year2018
RAAN144.4375
Inclination55.0843
Eccentricity0.0037335
Argument of Perigee205.1275
Mean Anonmoly154.6672
Mean Motion2.00564349
Decay Rate-7E-08
L11 41019U 15062A 18202.00467355 -.00000007 00000-0 00000+0 0 9999
L22 41019 55.0843 144.4375 0037335 205.1275 154.6672 2.00564349 19906

Live tracking and technical data element details for GPS BIIF-11 (NORAD 41019). GPS BIIF-11 can be tracked NOW for your location showing map with azimuth and elevation plus other details from your city location.

Track the satellite on the map from your city or location and see movement details for azimuth, elevation, latitude, longitude, range, height, and movement on the map or in text.







IsCatalogInMostPopularTable: catalog: 41019, numindb: 47
Update: records affected: 1



GetName: 41019 GPS BIIF-11

Hit Count: updated at: Mon, 23 Jul 2018 07:30:53 GMT